Time,TemperatureF,DewpointF,PressureIn,WindDirection,WindDirectionDegrees,WindSpeedMPH,WindSpeedGustMPH,Humidity,HourlyPrecipIn,Conditions,Clouds,dailyrainin,SoftwareType,DateUTC
2013-08-08 00:02:00,78.0,-99.9,29.96,East,80,4.0,6.0,-999,-99.99,,,-99.99,,2013-08-08 04:02:00,
2013-08-08 00:33:00,78.0,-99.9,29.96,East,85,4.0,6.0,-999,-99.99,,,-99.99,,2013-08-08 04:33:00,
2013-08-08 01:22:00,79.0,-99.9,29.96,East,79,2.0,4.0,-999,-99.99,,,-99.99,,2013-08-08 05:22:00,
2013-08-08 01:43:00,79.0,-99.9,29.95,East,88,3.0,5.0,-999,-99.99,,,-99.99,,2013-08-08 05:43:00,
2013-08-08 02:32:00,78.0,-99.9,29.95,East,88,2.0,6.0,-999,-99.99,,,-99.99,,2013-08-08 06:32:00,
2013-08-08 02:43:00,78.0,-99.9,29.94,ESE,110,2.0,3.0,-999,-99.99,,,-99.99,,2013-08-08 06:43:00,
2013-08-08 02:52:00,78.0,-99.9,29.94,East,79,4.0,6.0,-999,-99.99,,,-99.99,,2013-08-08 06:52:00,
2013-08-08 03:02:00,78.0,-99.9,29.94,ENE,77,3.0,6.0,-999,-99.99,,,-99.99,,2013-08-08 07:02:00,
2013-08-08 03:12:00,78.0,-99.9,29.94,ENE,66,4.0,6.0,-999,-99.99,,,-99.99,,2013-08-08 07:12:00,
2013-08-08 03:32:00,78.0,-99.9,29.94,East,89,3.0,5.0,-999,-99.99,,,-99.99,,2013-08-08 07:32:00,
2013-08-08 03:43:00,78.0,-99.9,29.93,East,79,4.0,6.0,-999,-99.99,,,-99.99,,2013-08-08 07:43:00,
2013-08-08 03:53:00,78.0,-99.9,29.93,East,85,3.0,6.0,-999,-99.99,,,-99.99,,2013-08-08 07:53:00,
2013-08-08 04:02:00,78.0,-99.9,29.93,East,80,4.0,6.0,-999,-99.99,,,-99.99,,2013-08-08 08:02:00,
2013-08-08 04:11:00,77.0,-99.9,29.93,East,79,4.0,5.0,-999,-99.99,,,-99.99,,2013-08-08 08:11:00,
2013-08-08 04:22:00,77.0,-99.9,29.93,East,81,3.0,7.0,-999,-99.99,,,-99.99,,2013-08-08 08:22:00,
2013-08-08 04:32:00,77.0,-99.9,29.93,East,83,4.0,7.0,-999,-99.99,,,-99.99,,2013-08-08 08:32:00,
2013-08-08 04:43:00,77.0,-99.9,29.93,East,92,3.0,5.0,-999,-99.99,,,-99.99,,2013-08-08 08:43:00,
2013-08-08 04:53:00,77.0,-99.9,29.93,East,88,4.0,5.0,-999,-99.99,,,-99.99,,2013-08-08 08:53:00,
2013-08-08 05:02:00,77.0,-99.9,29.92,East,90,4.0,6.0,-999,-99.99,,,-99.99,,2013-08-08 09:02:00,
2013-08-08 05:12:00,77.0,-99.9,29.92,East,81,5.0,8.0,-999,-99.99,,,-99.99,,2013-08-08 09:12:00,
2013-08-08 05:32:00,77.0,-99.9,29.92,East,86,4.0,5.0,-999,-99.99,,,-99.99,,2013-08-08 09:32:00,
2013-08-08 06:01:00,77.0,-99.9,29.93,ENE,77,5.0,7.0,-999,-99.99,,,-99.99,,2013-08-08 10:01:00,
2013-08-08 06:12:00,77.0,-99.9,29.93,ENE,77,5.0,7.0,-999,-99.99,,,-99.99,,2013-08-08 10:12:00,
2013-08-08 06:22:00,77.0,-99.9,29.93,ENE,77,5.0,7.0,-999,-99.99,,,-99.99,,2013-08-08 10:22:00,
2013-08-08 07:43:00,78.0,-99.9,29.93,ENE,77,5.0,7.0,-999,-99.99,,,-99.99,,2013-08-08 11:43:00,
2013-08-08 08:02:00,78.0,-99.9,29.94,East,81,4.0,7.0,-999,-99.99,,,-99.99,,2013-08-08 12:02:00,
2013-08-08 08:43:00,81.0,-99.9,29.95,ENE,74,5.0,7.0,-999,-99.99,,,-99.99,,2013-08-08 12:43:00,
2013-08-08 09:43:00,83.0,-99.9,29.96,ESE,109,7.0,11.0,-999,-99.99,,,-99.99,,2013-08-08 13:43:00,
2013-08-08 09:53:00,83.0,-99.9,29.96,SE,125,7.0,10.0,-999,-99.99,,,-99.99,,2013-08-08 13:53:00,
2013-08-08 10:44:00,84.0,-99.9,29.96,SE,132,11.0,17.0,-999,-99.99,,,-99.99,,2013-08-08 14:44:00,
2013-08-08 11:02:00,85.0,-99.9,29.97,SE,138,6.0,16.0,-999,-99.99,,,-99.99,,2013-08-08 15:02:00,
2013-08-08 11:43:00,86.0,-99.9,29.98,ESE,123,10.0,14.0,-999,-99.99,,,-99.99,,2013-08-08 15:43:00,
2013-08-08 12:32:00,87.0,-99.9,29.98,East,89,6.0,15.0,-999,-99.99,,,-99.99,,2013-08-08 16:32:00,
2013-08-08 12:42:00,88.0,-99.9,29.97,SE,127,7.0,13.0,-999,-99.99,,,-99.99,,2013-08-08 16:42:00,
2013-08-08 13:02:00,88.0,-99.9,29.97,ESE,114,6.0,10.0,-999,-99.99,,,-99.99,,2013-08-08 17:02:00,
2013-08-08 13:43:00,90.0,-99.9,29.97,SE,144,8.0,14.0,-999,-99.99,,,-99.99,,2013-08-08 17:43:00,
2013-08-08 14:02:00,90.0,-99.9,29.97,ESE,115,9.0,15.0,-999,-99.99,,,-99.99,,2013-08-08 18:02:00,
2013-08-08 14:43:00,90.0,-99.9,29.96,East,84,5.0,9.0,-999,-99.99,,,-99.99,,2013-08-08 18:43:00,
2013-08-08 15:02:00,91.0,-99.9,29.95,SSE,165,10.0,16.0,-999,-99.99,,,-99.99,,2013-08-08 19:02:00,
2013-08-08 15:12:00,91.0,-99.9,29.94,SE,144,9.0,12.0,-999,-99.99,,,-99.99,,2013-08-08 19:12:00,
2013-08-08 15:43:00,90.0,-99.9,29.94,SE,128,8.0,11.0,-999,-99.99,,,-99.99,,2013-08-08 19:43:00,
2013-08-08 15:59:00,90.0,-99.9,29.94,East,81,7.0,11.0,-999,-99.99,,,-99.99,,2013-08-08 19:59:00,
2013-08-08 16:42:00,86.0,-99.9,29.93,WNW,302,5.0,5.0,-999,-99.99,,,-99.99,,2013-08-08 20:42:00,
2013-08-08 16:53:00,84.0,-99.9,29.94,West,266,8.0,9.0,-999,-99.99,,,-99.99,,2013-08-08 20:53:00,
2013-08-08 17:01:00,85.0,-99.9,29.95,WNW,288,7.0,8.0,-999,-99.99,,,-99.99,,2013-08-08 21:01:00,
2013-08-08 17:46:00,84.0,-99.9,29.93,WNW,283,4.0,6.0,-999,-99.99,,,-99.99,,2013-08-08 21:46:00,
2013-08-08 18:17:00,84.0,-99.9,29.93,SSW,206,5.0,13.0,-999,-99.99,,,-99.99,,2013-08-08 22:17:00,
2013-08-08 18:37:00,82.0,-99.9,29.94,West,278,8.0,9.0,-999,-99.99,,,-99.99,,2013-08-08 22:37:00,
2013-08-08 18:49:00,81.0,-99.9,29.94,WSW,256,8.0,14.0,-999,-99.99,,,-99.99,,2013-08-08 22:49:00,
2013-08-08 18:58:00,79.0,-99.9,29.96,South,174,10.0,15.0,-999,-99.99,,,-99.99,,2013-08-08 22:58:00,
2013-08-08 19:07:00,79.0,-99.9,29.96,South,174,10.0,15.0,-999,-99.99,,,-99.99,,2013-08-08 23:07:00,
2013-08-08 19:58:00,77.0,-99.9,29.96,NNW,340,10.0,14.0,-999,-99.99,,,-99.99,,2013-08-08 23:58:00,
2013-08-08 20:06:00,78.0,-99.9,29.96,WNW,300,7.0,10.0,-999,-99.99,,,-99.99,,2013-08-09 00:06:00,
2013-08-08 20:17:00,77.0,-99.9,29.96,SSW,192,3.0,9.0,-999,-99.99,,,-99.99,,2013-08-09 00:17:00,
2013-08-08 20:26:00,77.0,-99.9,29.96,SW,221,0.0,3.0,-999,-99.99,,,-99.99,,2013-08-09 00:26:00,
2013-08-08 20:36:00,77.0,-99.9,29.97,SSW,194,2.0,3.0,-999,-99.99,,,-99.99,,2013-08-09 00:36:00,
2013-08-08 20:48:00,77.0,-99.9,29.97,SSE,162,2.0,4.0,-999,-99.99,,,-99.99,,2013-08-09 00:48:00,
2013-08-08 20:58:00,78.0,-99.9,29.97,South,180,1.0,4.0,-999,-99.99,,,-99.99,,2013-08-09 00:58:00,
2013-08-08 22:06:00,78.0,-99.9,29.98,ENE,73,3.0,4.0,-999,-99.99,,,-99.99,,2013-08-09 02:06:00,
2013-08-08 22:26:00,78.0,-99.9,29.99,North,355,6.0,7.0,-999,-99.99,,,-99.99,,2013-08-09 02:26:00,
2013-08-08 22:47:00,78.0,-99.9,30.00,NNE,33,4.0,6.0,-999,-99.99,,,-99.99,,2013-08-09 02:47:00,
2013-08-08 23:08:00,79.0,-99.9,30.00,NE,49,4.0,5.0,-999,-99.99,,,-99.99,,2013-08-09 03:08:00,
2013-08-08 23:48:00,78.0,-99.9,30.01,East,91,3.0,4.0,-999,-99.99,,,-99.99,,2013-08-09 03:48:00,